Time,TemperatureF,DewpointF,PressureIn,WindDirection,WindDirectionDegrees,WindSpeedMPH,WindSpeedGustMPH,Humidity,HourlyPrecipIn,Conditions,Clouds,dailyrainin,SoftwareType,DateUTC
2013-01-15 00:00:00,34.6,33.1,29.89,WNW,287,1.0,5.0,94,0.00,RA,,0.00,WeatherDisplay:10.37,2013-01-15 00:00:00,
2013-01-15 00:30:00,34.6,33.1,29.90,South,181,0.0,5.0,94,0.00,FEW,,0.00,WeatherDisplay:10.37,2013-01-15 00:30:00,
2013-01-15 01:00:00,34.0,32.5,29.90,SSW,194,1.0,4.0,94,0.00,FEW,,0.00,WeatherDisplay:10.37,2013-01-15 01:00:00,
2013-01-15 01:30:00,33.1,31.6,29.90,SW,222,0.0,3.0,94,0.00,FEW,,0.00,WeatherDisplay:10.37,2013-01-15 01:30:00,
2013-01-15 02:00:00,33.3,31.7,29.90,WNW,299,0.0,4.0,94,0.00,FEW,,0.00,WeatherDisplay:10.37,2013-01-15 02:00:00,
2013-01-15 02:30:00,32.8,31.3,29.90,South,189,0.0,3.0,94,0.00,FEW,,0.00,WeatherDisplay:10.37,2013-01-15 02:30:00,
2013-01-15 03:00:00,32.6,31.3,29.91,SSW,201,0.0,4.0,95,0.00,FEW,,0.00,WeatherDisplay:10.37,2013-01-15 03:00:00,
2013-01-15 04:00:00,31.7,30.2,29.91,South,190,0.0,3.0,94,0.00,FEW,,0.00,WeatherDisplay:10.37,2013-01-15 04:00:00,
2013-01-15 04:30:00,31.8,30.5,29.90,South,190,0.0,2.0,95,0.00,FEW,,0.00,WeatherDisplay:10.37,2013-01-15 04:30:00,
2013-01-15 05:30:00,31.5,30.2,29.90,South,169,0.0,2.0,95,0.00,FEW,,0.00,WeatherDisplay:10.37,2013-01-15 05:30:00,
2013-01-15 06:00:00,31.4,30.1,29.90,South,169,0.0,2.0,95,0.00,FEW,,0.00,WeatherDisplay:10.37,2013-01-15 06:00:00,
2013-01-15 06:30:00,30.8,29.5,29.91,South,169,0.0,1.0,95,0.00,FEW,,0.00,WeatherDisplay:10.37,2013-01-15 06:30:00,
2013-01-15 07:00:00,31.2,29.9,29.90,SE,127,0.0,2.0,95,0.00,FEW,,0.00,WeatherDisplay:10.37,2013-01-15 07:00:00,
2013-01-15 07:30:00,31.3,30.0,29.91,SE,135,0.0,2.0,95,0.00,FEW,,0.00,WeatherDisplay:10.37,2013-01-15 07:30:00,
2013-01-15 08:00:00,31.1,29.8,29.91,SSE,151,0.0,2.0,95,0.00,FEW,,0.00,WeatherDisplay:10.37,2013-01-15 08:00:00,
2013-01-15 08:30:00,30.8,29.5,29.91,SSE,156,0.0,2.0,95,0.00,SCT,,0.00,WeatherDisplay:10.37,2013-01-15 08:30:00,
2013-01-15 09:00:00,30.6,29.3,29.91,SSE,156,0.0,2.0,95,0.00,SCT,,0.00,WeatherDisplay:10.37,2013-01-15 09:00:00,
2013-01-15 09:30:00,30.6,29.3,29.90,SSE,156,0.0,2.0,95,0.00,FEW,,0.00,WeatherDisplay:10.37,2013-01-15 09:30:00,
2013-01-15 10:00:00,31.1,29.8,29.90,SSE,167,0.0,2.0,95,0.00,FEW,,0.00,WeatherDisplay:10.37,2013-01-15 10:00:00,
2013-01-15 10:30:00,32.5,31.5,29.90,SW,221,0.0,5.0,96,0.00,FEW,,0.00,WeatherDisplay:10.37,2013-01-15 10:30:00,
2013-01-15 11:00:00,33.2,32.2,29.90,SSW,202,1.0,3.0,96,0.00,FEW,,0.00,WeatherDisplay:10.37,2013-01-15 11:00:00,
2013-01-15 11:30:00,33.9,32.9,29.90,South,183,1.0,6.0,96,0.00,FEW,,0.00,WeatherDisplay:10.37,2013-01-15 11:30:00,
2013-01-15 12:00:00,34.7,33.4,29.90,SW,222,2.0,5.0,95,0.00,SCT,,0.00,WeatherDisplay:10.37,2013-01-15 12:00:00,
2013-01-15 12:30:00,35.9,34.6,29.89,SSW,201,2.0,5.0,95,0.00,SCT,,0.00,WeatherDisplay:10.37,2013-01-15 12:30:00,
2013-01-15 13:00:00,36.4,34.8,29.87,South,183,1.0,5.0,94,0.01,RA,,0.01,WeatherDisplay:10.37,2013-01-15 13:00:00,
2013-01-15 13:30:00,37.0,35.2,29.85,SSE,164,0.0,3.0,93,0.00,SCT,,0.01,WeatherDisplay:10.37,2013-01-15 13:30:00,
2013-01-15 14:00:00,37.5,35.7,29.84,South,169,0.0,2.0,93,0.00,SCT,,0.01,WeatherDisplay:10.37,2013-01-15 14:00:00,
2013-01-15 14:30:00,38.1,36.0,29.83,South,174,1.0,4.0,92,0.00,BKN,,0.01,WeatherDisplay:10.37,2013-01-15 14:30:00,
2013-01-15 15:00:00,38.1,36.0,29.83,SSW,211,0.0,3.0,92,0.00,BKN,,0.01,WeatherDisplay:10.37,2013-01-15 15:00:00,
2013-01-15 15:30:00,37.9,35.5,29.82,South,180,0.0,2.0,91,0.00,BKN,,0.01,WeatherDisplay:10.37,2013-01-15 15:30:00,
2013-01-15 16:00:00,37.9,35.5,29.81,SSE,151,0.0,3.0,91,0.00,BKN,,0.01,WeatherDisplay:10.37,2013-01-15 16:00:00,
2013-01-15 16:30:00,37.5,35.1,29.80,SSE,150,0.0,2.0,91,0.00,BKN,,0.01,WeatherDisplay:10.37,2013-01-15 16:30:00,
2013-01-15 17:00:00,36.8,34.4,29.79,SSE,151,0.0,1.0,91,0.00,BKN,,0.01,WeatherDisplay:10.37,2013-01-15 17:00:00,
2013-01-15 17:30:00,36.3,34.2,29.78,SSE,151,0.0,1.0,92,0.00,BKN,,0.01,WeatherDisplay:10.37,2013-01-15 17:30:00,
2013-01-15 18:00:00,36.0,33.9,29.78,SSE,151,0.0,1.0,92,0.00,BKN,,0.01,WeatherDisplay:10.37,2013-01-15 18:00:00,
2013-01-15 18:30:00,35.3,33.2,29.77,SSE,151,0.0,1.0,92,0.00,SCT,,0.01,WeatherDisplay:10.37,2013-01-15 18:30:00,
2013-01-15 19:00:00,34.9,32.9,29.76,SSE,151,0.0,1.0,92,0.00,SCT,,0.01,WeatherDisplay:10.37,2013-01-15 19:00:00,
2013-01-15 19:30:00,34.8,32.7,29.75,SE,146,0.0,0.0,92,0.00,SCT,,0.01,WeatherDisplay:10.37,2013-01-15 19:30:00,
2013-01-15 20:00:00,35.4,33.6,29.74,SE,139,0.0,2.0,93,0.00,SCT,,0.01,WeatherDisplay:10.37,2013-01-15 20:00:00,
2013-01-15 20:30:00,36.6,34.5,29.73,South,173,0.0,4.0,92,0.00,SCT,,0.01,WeatherDisplay:10.37,2013-01-15 20:30:00,
2013-01-15 21:00:00,37.6,34.9,29.73,SE,140,0.0,3.0,90,0.00,SCT,,0.01,WeatherDisplay:10.37,2013-01-15 21:00:00,
2013-01-15 21:30:00,38.0,35.1,29.72,SE,125,0.0,4.0,89,0.00,-RA,,0.01,WeatherDisplay:10.37,2013-01-15 21:30:00,
2013-01-15 22:00:00,38.5,35.3,29.72,SE,131,0.0,6.0,88,0.00,BKN,,0.01,WeatherDisplay:10.37,2013-01-15 22:00:00,
2013-01-15 22:30:00,38.5,35.5,29.71,SE,130,0.0,2.0,89,0.00,BKN,,0.01,WeatherDisplay:10.37,2013-01-15 22:30:00,
2013-01-15 23:00:00,39.1,36.1,29.71,South,189,0.0,4.0,89,0.00,BKN,,0.01,WeatherDisplay:10.37,2013-01-15 23:00:00,
2013-01-15 23:30:00,39.3,36.3,29.70,SSE,158,0.0,2.0,89,0.00,BKN,,0.01,WeatherDisplay:10.37,2013-01-15 23:30:00,